#timestamp,LO_Frequency,Hit,StdDev 
1506870015.9,286046999.9,N
1506870035.7,286047002.0,N
1506870055.5,286047001.0,N
1506870075.4,286046999.0,N
1506870095.2,286046998.4,N
1506870115.0,286047002.4,N
1506870115.9,286047002.4,N
1506870135.8,286047002.6,N
1506870155.6,286047000.5,N
1506870175.4,286046998.7,N
1506870195.3,286046999.7,N
1506870215.1,286047000.1,N
1506870216.0,286047000.1,N
1506870235.8,286047001.1,N
1506870255.7,286046998.8,N
1506870275.5,286046997.4,N
1506870295.3,286046997.1,N
1506870315.2,286046996.6,N
1506870335.9,286046999.3,N
1506870355.7,286046999.2,N
1506870375.6,286047000.6,N
1506870395.4,286046996.8,N
1506870415.2,286046997.7,N
1506870435.0,286046997.9,N
1506870435.9,286046997.9,N
1506870455.8,286046995.2,N
1506870475.6,286046997.7,N
1506870495.4,286046999.1,N
1506870515.3,286046995.0,N
1506870535.1,286046999.3,N
1506870555.8,286046998.7,N
1506870575.7,286046999.9,N
1506870595.5,286046999.5,N
1506870615.3,286047001.0,N
1506870635.2,286047001.2,N
1506870655.9,286046998.5,N
1506870675.7,286046997.7,N
1506870695.6,286046996.9,N
1506870715.4,286046999.7,N
1506870735.2,286046999.1,N
1506870755.0,286046999.9,N
1506870756.0,286046999.9,N
1506870775.8,286047002.6,N
1506870795.6,286046999.1,N
1506870815.4,286047000.4,N
1506870835.3,286047002.2,N
1506870855.1,286046996.9,N
1506870875.8,286046997.4,N
1506870895.7,286046997.4,N
1506870915.5,286046998.7,N
1506870935.3,286047002.0,N
1506870955.2,286046997.4,N
1506870975.9,286046996.6,N
1506870995.7,286047000.5,N
1506871015.6,286046999.7,N
1506871035.4,286047001.1,N
1506871055.2,286046999.7,N
1506871075.0,286047004.0,N
1506871076.0,286047004.0,N
1506871095.8,286047001.7,N
1506871115.6,286046998.4,N
1506871135.4,286047000.7,N
1506871155.3,286047001.8,N
1506871175.1,286047000.1,N
1506871195.8,286047000.6,N
1506871215.7,286047002.7,N
1506871235.5,286047001.7,N
1506871255.3,286047001.5,N
1506871275.2,286047002.6,N
1506871295.9,286047004.4,N
1506871315.7,286046999.9,N
1506871335.6,286047000.2,N
1506871355.4,286046998.8,N
1506871375.2,286046998.5,N
1506871395.1,286047000.8,N
1506871396.0,286047000.8,N
1506871415.8,286046998.0,N
1506871435.6,286046995.6,N
1506871455.5,286046995.1,N
1506871475.3,286046997.9,N
1506871495.1,286046996.6,N
1506871515.8,286046997.7,N
1506871535.7,286046995.5,N
1506871555.5,286046995.6,N
1506871575.3,286046995.6,N
1506871595.2,286046999.5,N
1506871615.9,286046999.3,N
1506871635.7,286046998.5,N
1506871655.6,286047001.2,N
1506871675.4,286047002.3,N
1506871695.2,286046999.0,N
1506871715.1,286047000.9,N
1506871716.0,286047000.9,N
1506871735.8,286046996.6,N
1506871755.6,286046996.9,N
1506871775.5,286046999.5,N
1506871795.3,286046997.3,N
1506871815.1,286046997.4,N
1506871835.8,286047000.7,N
1506871855.7,286046998.8,N
1506871875.5,286046996.9,N
1506871895.3,286046996.8,N
1506871915.2,286046994.6,N
1506871935.0,286046992.6,Y
1506871935.9,286046992.6,P
1506871955.7,286046995.2,N
1506871975.6,286046996.4,N
1506871995.4,286046993.4,Y
1506872015.3,286047003.8,P
1506872035.1,286047004.1,N
1506872036.0,286047004.1,N
1506872055.8,286047005.7,N
1506872075.6,286047001.5,N
1506872095.5,286047003.7,N
1506872115.3,286047002.6,N
1506872135.1,286047003.5,N
1506872155.9,286047005.4,N
1506872175.7,286047002.9,N
1506872195.5,286047003.6,N
1506872215.4,286047004.2,N
1506872235.2,286047003.8,N
1506872255.0,286047009.2,Y
1506872255.9,286047009.2,P
1506872275.8,286047004.3,N
1506872295.6,286047001.7,N
1506872315.4,286047002.4,N
1506872335.3,286047003.9,N
1506872355.1,286047002.1,N
1506872356.0,286047002.1,N
1506872375.8,286047001.5,N
1506872395.7,286046999.3,N
1506872415.5,286047001.2,N
1506872435.3,286047001.3,N
1506872455.1,286047001.5,N
1506872475.9,286047005.9,N
1506872495.7,286047006.8,N
1506872515.5,286047003.8,N
1506872535.4,286047005.7,N
1506872555.2,286047004.3,N
1506872575.0,286047003.5,N
1506872575.9,286047003.5,N
1506872595.8,286047002.8,N
1506872615.6,286047000.0,N
1506872635.4,286046999.9,N
1506872655.3,286047003.8,N
1506872675.1,286047006.9,Y
1506872676.0,286047006.9,P
1506872695.8,286047000.4,N
1506872715.7,286046999.5,N
1506872735.5,286046996.5,N
1506872755.3,286046998.4,N
1506872775.2,286046998.3,N
1506872795.9,286046999.4,N
1506872815.7,286046996.5,N
1506872835.6,286047001.1,N
1506872855.4,286047001.0,N
1506872875.2,286046995.3,N
1506872895.0,286046999.8,N
1506872895.9,286046999.8,N
1506872915.8,286046998.4,N
1506872935.6,286046996.9,N
1506872955.4,286046999.5,N
1506872975.3,286046999.3,N
1506872995.1,286046997.5,N
1506873015.8,286046998.0,N
1506873035.7,286046999.0,N
1506873055.5,286047002.5,N
1506873075.3,286046998.9,N
1506873095.2,286046999.8,N
1506873115.9,286047000.9,N
1506873135.7,286046996.6,N
1506873155.6,286046995.6,N
1506873175.4,286046994.9,N
1506873195.2,286046997.3,N
1506873215.0,286046999.3,N
1506873216.0,286046999.3,N
1506873235.8,286047002.5,N
1506873255.6,286047001.1,N
1506873275.4,286047001.2,N
1506873295.3,286046997.4,N
1506873315.1,286046992.2,Y
1506873335.8,286046992.7,P
1506873355.7,286046996.4,N
1506873375.5,286046993.9,N
1506873395.3,286046997.7,N
1506873415.2,286046996.8,N
1506873435.9,286046995.3,N
1506873455.7,286046997.2,N
1506873475.6,286046996.6,N
1506873495.4,286046998.4,N
1506873515.2,286046998.2,N
1506873535.1,286047001.1,N
1506873536.0,286047001.1,N
1506873555.8,286047001.2,N
1506873575.6,286047000.6,N
1506873595.5,286047000.3,N
